Regional Weather Roundup
Issued by NWS

Home | Current Version | Previous Version | Graphics & Text | Print | Product List | Glossary On
Versions: 1 2 3 4 5 6 7 8 9 10 11 12 13 14 15 16 17 18 19 20 21 22 23 24 25 26 27
000
ASUS45 KSLC 220010
RWRUT

UTAH REGIONAL WEATHER ROUNDUP
NATIONAL WEATHER SERVICE SALT LAKE CITY UT
600 PM MDT SAT APR 21 2018

UTZ001>011-023>025-220100-

NORTHERN UTAH

CITY           SKY/WX    TMP DP  RH WIND       PRES   REMARKS
BRIGHAM CITY   SUNNY     67  23  18 S3        30.14S
HILL AFB       SUNNY     65  24  21 S5        30.15F
LOGAN          SUNNY     72  32  23 W5        30.11F
OGDEN          SUNNY     66  23  19 SW7       30.13F
SALT LAKE CITY MOSUNNY   69  20  15 W9        30.13F
TOOELE VALLEY  SUNNY     66  28  24 NE5       30.15F
WENDOVER       SUNNY     72  24  16 SE12      30.11F
HEBER CITY       N/A     66  23  19 SW9       30.13S
WEST JORDAN    SUNNY     66  28  24 NW10      30.15F

$$

UTZ011>015-024>027-220100-

CENTRAL/NORTHEAST UTAH

CITY           SKY/WX    TMP DP  RH WIND       PRES   REMARKS
PROVO AIRPORT  SUNNY     66  34  30 NW13      30.15S
MOAB/CANYONLAN SUNNY     68  32  26 SE9       30.07S
DELTA          SUNNY     66  21  18 CALM      30.16S
PRICE          SUNNY     68  25  19 MISG      30.11S
ROOSEVELT      SUNNY     66  34  30 E3        30.11F
VERNAL         SUNNY     64  34  32 S3        30.10S

$$

UTZ013>016-019>022-027-220100-

SOUTHERN UTAH

CITY           SKY/WX    TMP DP  RH WIND       PRES   REMARKS
BRYCE CANYON   SUNNY     61  25  25 NW15G22   30.22S
CEDAR CITY     SUNNY     66  22  18 NE9       30.17S
MILFORD        SUNNY     67  31  26 N8        30.16F
ST GEORGE      CLEAR     82  20  10 W8        30.01F
HANKSVILLE     SUNNY     72  27  18 CALM      30.08S
BLANDING         N/A     65  28  24 E9        30.19S

$$

REGIONAL REPORTS     COLORADO/ARIZONA

CITY           SKY/WX    TMP DP  RH WIND       PRES   REMARKS
CRAIG, CO      PTSUNNY   55  37  50 S5        30.16S
GRAND JUNCTION SUNNY     63  33  32 S13       30.13S
RIFLE, CO      SUNNY     55  36  48 E5        30.18F
MONTROSE, CO   MOSUNNY   56  32  40 VRB5      30.20S
CORTEZ, CO     SUNNY     63  28  26 N16G26    30.13R
COLORADO CITY    N/A     73  21  14 NW8       30.13S
PAGE, AZ       SUNNY     74  26  16 NE9       30.05F
GRAND CANYON   SUNNY     65  24  21 N8G17     30.20S
KINGMAN, AZ    SUNNY     82  23  11 NE13      30.03F
FLAGSTAFF, AZ  SUNNY     64  22  20 E12       30.19S

$$

REGIONAL REPORTS    NEVADA/IDAHO/WYOMING

CITY           SKY/WX    TMP DP  RH WIND       PRES   REMARKS
LAS VEGAS, NV  MOSUNNY   84  26  12 N5        29.99F
ELY, NY        SUNNY     68  18  14 NE12      30.17F
ELKO, NV       SUNNY     70  32  24 W12G17    30.14F
POCATELLO, ID  MOSUNNY   70  30  22 W20G29    30.10S
BURLEY, ID     SUNNY     67  32  27 W16G26    30.10F
FORT BRIDGER,    N/A     63  13  14 NW18G25   30.20S
EVANSTON, WY   SUNNY     59  20  22 W12G28    30.20S
ROCK SPRINGS,  SUNNY     65  14  14 NW12G21   30.09S
KEMMERER, WY   SUNNY     59  21  23 W18G28    30.19S

$$




USA.gov is the U.S. government's official web portal to all federal, state and local government web resources and services.